User: anonymous   Login
Location: Mahannah Oil Field
(37.4664°N, 96.6003°W)
Time: 02:03:58
(UTC+00:00)
Language:

A-11 Canister half - Orbit

View from above orbital plane
View from above orbital plane
View from above satellite
View from above satellite

Ground track
Ground track

The orbit data is extracted from the following two-line orbital elements,

1 00053U 60009E   21125.32721139 -.00000079  00000-0  50141-4 0  9994
2 00053  47.2789 346.3768 0098278 313.1653  46.0954 12.17254078707773
Epoch (UTC): 05 May 2021 07:51:11
Eccentricity: 0.0098278
inclination: 47.2789°
perigee height: 1526 km
apogee height: 1683 km
right ascension of ascending node: 346.3768°
argument of perigee: 313.1653°
revolutions per day: 12.17254078
mean anomaly at epoch: 46.0954°
orbit number at epoch: 70777

The dashed part of the orbit path shows where the satellite is in the earth's shadow,  

DLR